TimeEST,TemperatureF,Dew PointF,Humidity,Sea Level PressureIn,VisibilityMPH,Wind Direction,Wind SpeedMPH,Gust SpeedMPH,PrecipitationIn,Events,Conditions,WindDirDegrees,DateUTC
12:53 AM,21.0,16.0,81,30.13,10.0,Calm,Calm,-,N/A,,Clear,0,2012-11-25 05:53:00
1:53 AM,21.9,17.1,82,30.13,10.0,Calm,Calm,-,N/A,,Clear,0,2012-11-25 06:53:00
2:53 AM,21.9,18.0,85,30.13,10.0,Calm,Calm,-,N/A,,Clear,0,2012-11-25 07:53:00
3:53 AM,19.9,16.0,85,30.13,10.0,Calm,Calm,-,N/A,,Clear,0,2012-11-25 08:53:00
4:53 AM,21.0,17.1,85,30.13,10.0,Calm,Calm,-,N/A,,Clear,0,2012-11-25 09:53:00
5:53 AM,19.0,16.0,88,30.15,10.0,Calm,Calm,-,N/A,,Clear,0,2012-11-25 10:53:00
6:53 AM,19.0,16.0,88,30.16,10.0,Calm,Calm,-,N/A,,Partly Cloudy,0,2012-11-25 11:53:00
7:53 AM,21.9,19.0,89,30.17,10.0,Calm,Calm,-,N/A,,Mostly Cloudy,0,2012-11-25 12:53:00
8:53 AM,28.0,24.1,85,30.17,10.0,Calm,Calm,-,N/A,,Mostly Cloudy,0,2012-11-25 13:53:00
9:53 AM,33.1,24.1,70,30.17,10.0,Calm,Calm,-,N/A,,Partly Cloudy,0,2012-11-25 14:53:00
10:53 AM,37.0,23.0,57,30.15,10.0,Calm,Calm,-,N/A,,Partly Cloudy,0,2012-11-25 15:53:00
11:53 AM,41.0,21.0,45,30.12,10.0,SSW,6.9,-,N/A,,Partly Cloudy,210,2012-11-25 16:53:00
12:53 PM,45.0,17.1,33,30.07,10.0,Variable,6.9,-,N/A,,Partly Cloudy,0,2012-11-25 17:53:00
1:53 PM,48.0,10.0,22,30.04,10.0,WSW,13.8,-,N/A,,Partly Cloudy,240,2012-11-25 18:53:00
2:53 PM,50.0,10.9,21,30.02,10.0,WSW,10.4,-,N/A,,Partly Cloudy,240,2012-11-25 19:53:00
3:53 PM,50.0,12.9,23,30.03,10.0,West,11.5,-,N/A,,Clear,260,2012-11-25 20:53:00
4:53 PM,48.0,12.0,24,30.03,10.0,WSW,12.7,16.1,N/A,,Clear,240,2012-11-25 21:53:00
5:53 PM,42.1,15.1,34,30.04,10.0,Calm,Calm,-,N/A,,Clear,0,2012-11-25 22:53:00
6:53 PM,39.9,15.1,36,30.06,10.0,Calm,Calm,-,N/A,,Clear,0,2012-11-25 23:53:00
7:53 PM,34.0,19.0,54,30.09,10.0,Calm,Calm,-,N/A,,Clear,0,2012-11-26 00:53:00
8:53 PM,30.9,19.0,61,30.09,10.0,Calm,Calm,-,N/A,,Clear,0,2012-11-26 01:53:00
9:53 PM,30.0,19.0,64,30.09,10.0,Calm,Calm,-,N/A,,Clear,0,2012-11-26 02:53:00
10:53 PM,28.9,19.0,67,30.10,10.0,Calm,Calm,-,N/A,,Clear,0,2012-11-26 03:53:00
11:53 PM,28.9,19.0,67,30.10,10.0,Calm,Calm,-,N/A,,Clear,0,2012-11-26 04:53:00